OK1HRA-8 Weather Reports


time (UTC)temp
C
wind
direction
speed
KPH
gust
KPH
rain 1hr
cm
rain 24hr
cm
rain mn
cm
humidity
%
barometer
mb
20260510133342 18 -1 12.9 20.9 0.00 0.00 0.00 3 998.4
20260510132834 18 -1 9.7 19.3 0.00 0.00 0.00 3 998.4
20260510132326 18 0 14.5 22.5 0.00 0.00 0.00 4 996.4
20260510131819 18 45 9.7 16.1 0.00 0.00 0.00 4 992.9
20260510131312 18 180 14.5 30.6 0.00 0.00 0.00 3 997.5
20260510130805 18 135 14.5 19.3 0.00 0.00 0.00 3 997.9
20260510130257 18 45 11.3 20.9 0.00 0.00 0.00 4 995.1
20260510125750 18 90 14.5 24.1 0.00 0.00 0.00 3 997.7
20260510125243 18 45 14.5 29.0 0.00 0.00 0.00 3 993.7
20260510124735 18 45 11.3 20.9 0.00 0.00 0.00 3 995.2
20260510124227 19 90 11.3 19.3 0.00 0.00 0.00 3 997.6
20260510123720 19 180 8.0 16.1 0.00 0.00 0.00 3 999.5
20260510123213 18 135 16.1 29.0 0.00 0.00 0.00 3 999.5
20260510122706 19 135 9.7 17.7 0.00 0.00 0.00 3 1000.5
20260510122159 19 45 8.0 14.5 0.00 0.00 0.00 4 998.8
20260510121652 18 -1 8.0 16.1 0.00 0.00 0.00 3 1000.4
20260510121145 18 135 14.5 30.6 0.00 0.00 0.00 3 1001.2
20260510120638 18 90 6.4 12.9 0.00 0.00 0.00 4 998.6
20260510120131 17 90 9.7 14.5 0.00 0.00 0.00 4 998.0
20260510115624 17 45 9.7 17.7 0.00 0.00 0.00 4 996.2
20260510115117 17 45 12.9 22.5 0.00 0.00 0.00 4 995.3
20260510114610 17 90 11.3 19.3 0.00 0.00 0.00 3 998.7
20260510114103 18 90 14.5 25.7 0.00 0.00 0.00 3 999.7
20260510113555 18 180 12.9 22.5 0.00 0.00 0.00 3 1000.8
20260510113047 18 135 11.3 19.3 0.00 0.00 0.00 4 1000.7
20260510112539 18 45 9.7 14.5 0.00 0.00 0.00 4 1001.2
20260510112031 18 -1 12.9 19.3 0.00 0.00 0.00 4 1000.9
20260510111523 17 180 11.3 19.3 0.00 0.00 0.00 4 1001.3
20260510111016 18 135 9.7 17.7 0.00 0.00 0.00 4 1001.3
20260510110509 18 180 12.9 17.7 0.00 0.00 0.00 4 999.8
20260510110002 17 90 9.7 17.7 0.00 0.00 0.00 4 1000.0
20260510105454 16 90 12.9 19.3 0.00 0.00 0.00 4 997.8
20260510104946 17 90 12.9 20.9 0.00 0.00 0.00 4 998.4
20260510104439 17 90 11.3 22.5 0.00 0.00 0.00 4 1002.3
20260510103931 17 180 12.9 19.3 0.00 0.00 0.00 4 1001.6
20260510103424 17 90 11.3 16.1 0.00 0.00 0.00 4 1000.7
20260510102917 17 -1 9.7 17.7 0.00 0.00 0.00 4 1001.5
20260510102410 17 -1 11.3 20.9 0.00 0.00 0.00 4 1002.5
20260510101903 16 135 12.9 24.1 0.00 0.00 0.00 4 1001.8
20260510101355 16 180 12.9 19.3 0.00 0.00 0.00 4 1000.3
20260510100847 16 45 12.9 24.1 0.00 0.00 0.00 5 998.6
20260510100340 16 135 12.9 22.5 0.00 0.00 0.00 4 1002.0
20260510095832 16 90 11.3 20.9 0.00 0.00 0.00 4 1001.6
20260510095324 16 45 11.3 17.7 0.00 0.00 0.00 4 1002.2
20260510094817 16 90 12.9 20.9 0.00 0.00 0.00 4 1002.0
20260510094310 15 135 9.7 17.7 0.00 0.00 0.00 4 1002.0
20260510093802 16 135 9.7 17.7 0.00 0.00 0.00 4 1002.2
20260510093254 16 135 9.7 16.1 0.00 0.00 0.00 4 1003.0
20260510092747 16 -1 11.3 19.3 0.00 0.00 0.00 4 1001.1
20260510092239 16 -1 11.3 17.7 0.00 0.00 0.00 4 1003.1
20260510091732 15 135 11.3 17.7 0.00 0.00 0.00 4 1002.1
20260510091225 15 90 11.3 22.5 0.00 0.00 0.00 5 1002.3
20260510090718 15 90 12.9 24.1 0.00 0.00 0.00 5 1000.6
20260510090211 15 135 12.9 27.4 0.00 0.00 0.00 4 1002.0
20260510085704 15 -1 14.5 24.1 0.00 0.00 0.00 4 1002.1
20260510085156 15 135 14.5 20.9 0.00 0.00 0.00 5 1000.9
20260510084649 15 90 11.3 20.9 0.00 0.00 0.00 5 1002.3
20260510084142 14 90 11.3 19.3 0.00 0.00 0.00 4 1000.8
20260510083635 15 135 11.3 19.3 0.00 0.00 0.00 4 1002.6
20260510083128 14 180 11.3 20.9 0.00 0.00 0.00 5 1002.4
20260510082621 13 90 12.9 20.9 0.00 0.00 0.00 5 1003.1
20260510082113 13 45 14.5 25.7 0.00 0.00 0.00 5 1000.4
20260510081606 13 -1 14.5 19.3 0.00 0.00 0.00 5 1000.7
20260510081058 13 45 12.9 19.3 0.00 0.00 0.00 5 1002.7
20260510080551 13 -1 12.9 20.9 0.00 0.00 0.00 5 1002.4
20260510080044 13 45 9.7 16.1 0.00 0.00 0.00 5 1003.7
20260510075536 13 90 0.0 0.0 0.00 0.00 0.00 5 1003.6
20260510075028 13 135 0.0 0.0 0.00 0.00 0.00 5 1005.4
20260510074520 13 90 0.0 0.0 0.00 0.00 0.00 6 1000.8
20260510074013 12 45 0.0 0.0 0.00 0.00 0.00 6 1002.2
20260510073505 12 0 0.0 0.0 0.00 0.00 0.00 6 1002.1
20260510072958 12 90 0.0 0.0 0.00 0.00 0.00 5 1003.5
20260510072451 12 90 0.0 0.0 0.00 0.00 0.00 6 1002.1
20260510071944 12 45 0.0 0.0 0.00 0.00 0.00 6 1000.1
20260510071437 11 45 0.0 0.0 0.00 0.00 0.00 6 1000.1
20260510070930 12 45 0.0 0.0 0.00 0.00 0.00 6 1001.5
20260510070422 11 45 0.0 0.0 0.00 0.00 0.00 6 999.9
20260510065914 11 45 0.0 0.0 0.00 0.00 0.00 6 1000.7
20260510065407 11 45 0.0 0.0 0.00 0.00 0.00 6 1000.7
20260510064900 11 45 0.0 0.0 0.00 0.00 0.00 6 1000.2
20260510064353 10 45 0.0 0.0 0.00 0.00 0.00 7 1001.6
20260510063845 10 45 0.0 0.0 0.00 0.00 0.00 7 1000.9
20260510063338 10 45 0.0 0.0 0.00 0.00 0.00 6 1000.7
20260510062831 10 45 0.0 0.0 0.00 0.00 0.00 6 1001.2
20260510062324 11 45 0.0 0.0 0.00 0.00 0.00 6 1000.7
20260510061817 11 135 0.0 0.0 0.00 0.00 0.00 5 1004.2
20260510061310 10 0 0.0 0.0 0.00 0.00 0.00 6 1003.8
20260510060802 10 45 0.0 0.0 0.00 0.00 0.00 6 1002.0
20260510060254 10 0 0.0 0.0 0.00 0.00 0.00 6 999.6
20260510055747 10 -1 0.0 0.0 0.00 0.00 0.00 5 1001.6
20260510055240 10 135 0.0 0.0 0.00 0.00 0.00 5 1002.5
20260510054733 10 135 0.0 0.0 0.00 0.00 0.00 6 1002.7
20260510054226 9 135 0.0 0.0 0.00 0.00 0.00 5 1003.9
20260510053719 8 45 0.0 0.0 0.00 0.00 0.00 7 1002.7
20260510053211 8 45 0.0 0.0 0.00 0.00 0.00 7 1002.5
20260510052703 8 45 0.0 0.0 0.00 0.00 0.00 7 1002.2
20260510052155 8 45 0.0 0.0 0.00 0.00 0.00 7 1002.7
20260510051648 8 0 0.0 0.0 0.00 0.00 0.00 7 1002.9
20260510051141 8 45 0.0 0.0 0.00 0.00 0.00 7 1001.8
20260510050634 7 90 0.0 0.0 0.00 0.00 0.00 7 1003.3
20260510050127 7 45 0.0 0.0 0.00 0.00 0.00 7 1001.2
20260510045618 7 45 0.0 0.0 0.00 0.00 0.00 8 1001.5
20260510045112 7 0 0.0 0.0 0.00 0.00 0.00 8 999.7
20260510044605 7 90 0.0 0.0 0.00 0.00 0.00 7 1001.4
20260510044058 7 90 0.0 0.0 0.00 0.00 0.00 7 1000.3
20260510043550 7 90 0.0 0.0 0.00 0.00 0.00 7 1000.2
20260510043043 7 90 0.0 0.0 0.00 0.00 0.00 7 1000.8
20260510042536 7 90 0.0 0.0 0.00 0.00 0.00 7 1001.3
20260510042028 6 -1 0.0 0.0 0.00 0.00 0.00 8 1001.1
20260510041522 6 -1 0.0 0.0 0.00 0.00 0.00 8 1000.1
20260510041015 6 90 0.0 0.0 0.00 0.00 0.00 8 1001.0
20260510040508 6 45 0.0 0.0 0.00 0.00 0.00 8 1000.4
20260510040000 6 45 0.0 0.0 0.00 0.00 0.00 8 1000.6
20260510035453 6 45 0.0 0.0 0.00 0.00 0.00 8 1000.9
20260510034946 6 0 0.0 0.0 0.00 0.00 0.00 8 1001.0
20260510034439 6 0 0.0 0.0 0.00 0.00 0.00 8 1000.6
20260510033931 6 45 0.0 0.0 0.00 0.00 0.00 9 1000.1
20260510033424 5 0 0.0 0.0 0.00 0.00 0.00 8 1000.5
20260510032917 6 0 0.0 0.0 0.00 0.00 0.00 8 999.9
20260510032410 6 45 0.0 0.0 0.00 0.00 0.00 8 999.3
20260510031904 6 90 0.0 0.0 0.00 0.00 0.00 8 1000.6
20260510031356 6 90 0.0 0.0 0.00 0.00 0.00 8 1000.7
20260510030849 6 67 0.0 0.0 0.00 0.00 0.00 8 1001.2
20260510030342 6 45 0.0 0.0 0.00 0.00 0.00 8 1001.1
20260510025835 6 45 0.0 0.0 0.00 0.00 0.00 9 999.3
20260510025328 6 45 0.0 0.0 0.00 0.00 0.00 8 1000.1
20260510024821 6 90 8.0 14.5 0.00 0.00 0.00 8 999.7
20260510024314 6 90 6.4 11.3 0.00 0.00 0.00 8 999.7
20260510023806 6 45 0.0 0.0 0.00 0.00 0.00 8 999.5
20260510023259 6 45 0.0 0.0 0.00 0.00 0.00 8 999.1
20260510022752 7 45 0.0 0.0 0.00 0.00 0.00 8 999.7
20260510022244 7 45 0.0 0.0 0.00 0.00 0.00 8 1000.2
20260510021737 7 45 0.0 0.0 0.00 0.00 0.00 8 1000.0
20260510021230 6 0 0.0 0.0 0.00 0.00 0.00 8 999.9
20260510020722 6 0 0.0 0.0 0.00 0.00 0.00 8 1000.1
20260510020216 6 0 4.8 8.0 0.00 0.00 0.00 8 999.9
20260510015709 6 -1 6.4 9.7 0.00 0.00 0.00 8 999.3
20260510015201 6 45 9.7 11.3 0.00 0.00 0.00 8 999.6
20260510014653 7 45 9.7 11.3 0.00 0.00 0.00 8 1000.0
20260510014146 6 45 8.0 12.9 0.00 0.00 0.00 8 1000.2
20260510013639 6 45 8.0 9.7 0.00 0.00 0.00 8 999.7
20260510013132 7 -1 0.0 0.0 0.00 0.00 0.00 8 999.5
20260510012625 7 45 0.0 0.0 0.00 0.00 0.00 8 999.6
20260510012117 7 45 0.0 0.0 0.00 0.00 0.00 8 999.4
20260510011609 7 45 0.0 0.0 0.00 0.00 0.00 7 999.1
20260510011102 7 45 0.0 0.0 0.00 0.00 0.00 7 999.5
20260510010555 7 45 6.4 11.3 0.00 0.00 0.00 7 999.3
20260510010048 7 90 8.0 12.9 0.00 0.00 0.00 7 998.7
20260510005540 7 90 8.0 12.9 0.00 0.00 0.00 7 998.6
20260510005033 8 90 9.7 16.1 0.00 0.00 0.00 7 999.3
20260510004526 8 90 9.7 14.5 0.00 0.00 0.00 7 999.7
20260510004017 7 90 8.0 12.9 0.00 0.00 0.00 7 999.6
20260510003510 8 90 9.7 14.5 0.00 0.00 0.00 7 999.6
20260510003004 8 90 11.3 16.1 0.00 0.00 0.00 7 998.9
20260510002457 8 90 9.7 17.7 0.00 0.00 0.00 7 999.4
20260510001949 8 90 11.3 16.1 0.00 0.00 0.00 7 999.0
20260510001442 8 90 11.3 14.5 0.00 0.00 0.00 7 999.3
20260510000935 8 90 11.3 17.7 0.00 0.00 0.00 7 999.6
20260510000428 8 -1 11.3 16.1 0.00 0.00 0.00 7 1000.4
20260509235921 8 -1 12.9 17.7 0.00 0.00 0.00 7 1000.2
20260509235414 8 90 0.0 0.0 0.00 0.00 0.00 7 1000.4
20260509234907 8 90 0.0 0.0 0.00 0.00 0.00 7 1001.1
20260509234359 8 90 0.0 0.0 0.00 0.00 0.00 7 1000.8
20260509233852 8 90 0.0 0.0 0.00 0.00 0.00 7 1001.6
20260509233345 8 90 0.0 0.0 0.00 0.00 0.00 7 1001.5
20260509232839 8 90 0.0 0.0 0.00 0.00 0.00 7 1001.2
20260509232331 8 90 0.0 0.0 0.00 0.00 0.00 7 1001.4
20260509231824 8 90 0.0 0.0 0.00 0.00 0.00 7 1001.4
20260509231317 8 90 0.0 0.0 0.00 0.00 0.00 7 1001.6
20260509230809 8 90 0.0 0.0 0.00 0.00 0.00 7 1002.1
20260509230302 8 90 0.0 0.0 0.00 0.00 0.00 7 1001.8
20260509225754 8 90 0.0 0.0 0.00 0.00 0.00 7 1002.0
20260509225247 8 90 0.0 0.0 0.00 0.00 0.00 7 1002.1
20260509224739 8 90 8.0 12.9 0.00 0.00 0.00 7 1002.0
20260509224231 8 90 11.3 17.7 0.00 0.00 0.00 7 1001.7
20260509223723 9 90 12.9 19.3 0.00 0.00 0.00 7 1001.5
20260509223215 8 90 12.9 17.7 0.00 0.00 0.00 7 1001.7
20260509222708 9 90 11.3 16.1 0.00 0.00 0.00 7 1001.7
20260509222200 9 90 11.3 16.1 0.00 0.00 0.00 7 1001.2
20260509221653 9 90 8.0 12.9 0.00 0.00 0.00 7 1001.6
20260509221146 8 -1 0.0 0.0 0.00 0.00 0.00 7 1002.3
20260509220639 8 -1 0.0 0.0 0.00 0.00 0.00 7 1002.5
20260509220132 8 -1 9.7 14.5 0.00 0.00 0.00 7 1002.8
20260509215624 8 135 0.0 0.0 0.00 0.00 0.00 7 1002.8
20260509215116 8 -1 8.0 12.9 0.00 0.00 0.00 7 1002.7
20260509214609 9 135 9.7 16.1 0.00 0.00 0.00 7 1002.5
20260509214101 9 -1 9.7 16.1 0.00 0.00 0.00 7 1002.6
20260509213554 9 -1 11.3 19.3 0.00 0.00 0.00 7 1002.6
20260509213046 9 135 11.3 17.7 0.00 0.00 0.00 7 1002.4
20260509212539 9 90 11.3 17.7 0.00 0.00 0.00 7 1002.5
20260509212032 9 90 11.3 19.3 0.00 0.00 0.00 7 1002.1
20260509211525 9 45 9.7 16.1 0.00 0.00 0.00 7 1002.6
20260509211017 10 90 9.7 16.1 0.00 0.00 0.00 7 1002.4
20260509210509 10 90 9.7 14.5 0.00 0.00 0.00 7 1002.4
20260509210001 10 -1 9.7 14.5 0.00 0.00 0.00 7 1002.6
20260509205454 10 90 8.0 14.5 0.00 0.00 0.00 7 1002.4
20260509204947 10 90 8.0 14.5 0.00 0.00 0.00 7 1002.6
20260509204440 10 90 9.7 16.1 0.00 0.00 0.00 7 1002.4
20260509203933 10 90 9.7 14.5 0.00 0.00 0.00 7 1002.4
20260509203426 10 90 11.3 16.1 0.00 0.00 0.00 7 1002.0
20260509202918 10 135 8.0 16.1 0.00 0.00 0.00 6 1003.0
20260509202411 10 -1 8.0 14.5 0.00 0.00 0.00 6 1002.5
20260509201903 10 -1 8.0 14.5 0.00 0.00 0.00 6 1002.8
20260509201356 10 -1 8.0 17.7 0.00 0.00 0.00 6 1003.1
20260509200849 10 -1 0.0 0.0 0.00 0.00 0.00 6 1002.8
20260509200341 10 90 9.7 14.5 0.00 0.00 0.00 6 1002.8
20260509195834 10 90 9.7 16.1 0.00 0.00 0.00 6 1002.8
20260509195327 10 90 9.7 16.1 0.00 0.00 0.00 6 1002.4
20260509194819 10 90 9.7 17.7 0.00 0.00 0.00 6 1002.0
20260509194312 10 90 11.3 17.7 0.00 0.00 0.00 6 1001.8
20260509193804 11 90 9.7 17.7 0.00 0.00 0.00 6 1002.1
20260509193256 11 90 12.9 17.7 0.00 0.00 0.00 6 1001.9
20260509192749 11 90 9.7 16.1 0.00 0.00 0.00 6 1002.6
20260509192242 11 90 8.0 12.9 0.00 0.00 0.00 6 1002.2
20260509191734 11 90 9.7 14.5 0.00 0.00 0.00 6 1002.1
20260509191226 11 -1 9.7 16.1 0.00 0.00 0.00 6 1002.0
20260509190719 11 90 8.0 14.5 0.00 0.00 0.00 6 1001.6
20260509190212 11 90 11.3 19.3 0.00 0.00 0.00 6 1001.3
20260509185704 11 45 9.7 17.7 0.00 0.00 0.00 6 1001.5
20260509185157 11 -1 11.3 17.7 0.00 0.00 0.00 7 1000.9
20260509184649 11 90 11.3 19.3 0.00 0.00 0.00 7 1000.1
20260509184142 12 90 12.9 22.5 0.00 0.00 0.00 6 1000.8
20260509183634 12 90 11.3 22.5 0.00 0.00 0.00 6 1000.4
20260509183127 12 90 14.5 24.1 0.00 0.00 0.00 6 1000.4
20260509182619 12 45 16.1 30.6 0.00 0.00 0.00 6 1000.2
20260509182112 12 45 14.5 27.4 0.00 0.00 0.00 6 1000.4
20260509181605 12 90 17.7 29.0 0.00 0.00 0.00 6 999.1
20260509181057 12 45 14.5 24.1 0.00 0.00 0.00 6 999.9
20260509180549 13 90 14.5 25.7 0.00 0.00 0.00 6 1000.3
20260509180042 13 90 12.9 20.9 0.00 0.00 0.00 6 1000.8
20260509175535 13 45 14.5 24.1 0.00 0.00 0.00 6 1000.0
20260509175028 13 90 12.9 24.1 0.00 0.00 0.00 6 1000.7
20260509174521 13 90 9.7 16.1 0.00 0.00 0.00 6 1001.6
20260509174014 13 90 11.3 17.7 0.00 0.00 0.00 5 1001.4
20260509173506 13 45 12.9 19.3 0.00 0.00 0.00 5 1001.5
20260509172959 13 45 11.3 20.9 0.00 0.00 0.00 6 1001.4
20260509172452 13 45 12.9 20.9 0.00 0.00 0.00 5 1000.7
20260509171944 14 90 9.7 17.7 0.00 0.00 0.00 5 1001.8
20260509171437 14 45 12.9 22.5 0.00 0.00 0.00 5 1000.5
20260509170929 14 45 12.9 22.5 0.00 0.00 0.00 5 1001.0
20260509170421 14 45 11.3 25.7 0.00 0.00 0.00 5 1000.3
20260509165914 14 45 16.1 27.4 0.00 0.00 0.00 5 1000.6
20260509165406 15 45 11.3 22.5 0.00 0.00 0.00 5 999.7
20260509164859 15 -1 11.3 17.7 0.00 0.00 0.00 4 1003.2
20260509164352 15 90 9.7 19.3 0.00 0.00 0.00 4 1002.7
20260509163844 15 -1 11.3 19.3 0.00 0.00 0.00 5 1001.9
20260509163337 15 90 14.5 24.1 0.00 0.00 0.00 5 1000.4
20260509162830 15 90 12.9 19.3 0.00 0.00 0.00 5 1003.2
20260509162322 15 -1 11.3 19.3 0.00 0.00 0.00 4 1003.6
20260509161814 15 45 11.3 19.3 0.00 0.00 0.00 4 1005.2
20260509161307 15 45 11.3 17.7 0.00 0.00 0.00 5 1002.0
20260509160759 15 -1 9.7 16.1 0.00 0.00 0.00 5 1002.0
20260509160252 15 -1 12.9 24.1 0.00 0.00 0.00 5 1000.4
20260509155745 15 45 12.9 22.5 0.00 0.00 0.00 5 1000.4
20260509155237 15 90 14.5 20.9 0.00 0.00 0.00 4 1002.6
20260509154729 15 90 12.9 20.9 0.00 0.00 0.00 4 1003.3
20260509154222 15 -1 16.1 24.1 0.00 0.00 0.00 4 1002.4
20260509153715 15 135 9.7 19.3 0.00 0.00 0.00 4 1006.3
20260509153207 15 90 14.5 22.5 0.00 0.00 0.00 5 1002.5
20260509152700 15 45 12.9 24.1 0.00 0.00 0.00 5 1001.0
20260509152152 15 45 12.9 20.9 0.00 0.00 0.00 5 1001.6
20260509151644 15 90 11.3 20.9 0.00 0.00 0.00 5 1003.9
20260509151136 15 45 14.5 24.1 0.00 0.00 0.00 5 1002.3
20260509150629 15 90 12.9 22.5 0.00 0.00 0.00 5 1003.0
20260509150122 15 45 16.1 29.0 0.00 0.00 0.00 5 1002.2
20260509145614 15 0 14.5 20.9 0.00 0.00 0.00 5 1001.1
20260509145107 15 45 12.9 22.5 0.00 0.00 0.00 5 1001.6
20260509144559 15 45 9.7 16.1 0.00 0.00 0.00 5 1000.7
20260509144051 15 45 12.9 19.3 0.00 0.00 0.00 5 999.3
20260509143544 16 180 11.3 19.3 0.00 0.00 0.00 4 1008.5
20260509143038 15 45 11.3 20.9 0.00 0.00 0.00 5 1001.7
20260509142529 15 45 12.9 20.9 0.00 0.00 0.00 5 1000.7
20260509142022 15 90 11.3 16.1 0.00 0.00 0.00 4 1003.7
20260509141514 15 -1 11.3 16.1 0.00 0.00 0.00 5 1004.2
20260509141007 14 45 12.9 19.3 0.00 0.00 0.00 5 1000.1
20260509140459 14 45 14.5 20.9 0.00 0.00 0.00 5 1000.3
20260509135951 15 45 0.0 0.0 0.00 0.00 0.00 5 1000.7
20260509135444 16 90 0.0 0.0 0.00 0.00 0.00 4 1004.7
20260509134937 15 90 0.0 0.0 0.00 0.00 0.00 4 1007.3
20260509134429 15 90 4.8 4.8 0.00 0.00 0.00 4 1006.6
20260509133922 15 -1 9.7 17.7 0.00 0.00 0.00 4 1005.3